Regional Weather Roundup
Issued by NWS

Home | Current Version | Previous Version | Text Only | Print | Product List | Glossary Off
Versions: 1 2 3 4 5 6 7 8 9 10 11 12 13 14 15 16 17 18 19 20 21 22 23 24 25 26 27 28 29 30 31 32 33 34 35 36 37 38 39 40 41 42 43 44 45 46 47 48 49 50

000
ASUS43 KDTX 201001
RWRMI
MICHIGAN HOURLY REGIONAL WEATHER ROUNDUP
NATIONAL WEATHER SERVICE DETROIT/PONTIAC MI
600 AM EDT MON OCT 20 2014

NOTE: "FAIR" INDICATES FEW OR NO CLOUDS BELOW 12,000 FEET WITH NO
SIGNIFICANT WEATHER AND/OR OBSTRUCTION TO VISIBILITY.

MIZ047>049-052>055-059>063-066>070-074>076-081>083-201100-
SOUTHEAST LOWER MICHIGAN

CITY           SKY/WX    TMP DP  RH WIND       PRES   REMARKS
ADRIAN         CLOUDY    47  42  83 SW9       29.90F
ALMA           MOCLDY    47  44  87 S6        29.81F
ANN ARBOR      CLOUDY    47  41  80 S6        29.88F
CARO           DRIZZLE   47  44  90 SW8       29.83S
DETROIT CITY   CLOUDY    49  42  77 SW6       29.89F
DETROIT        CLOUDY    47  43  86 S7        29.90F
FLINT          CLOUDY    49  43  80 S9        29.85F
GROSSE ILE     RAIN      48  43  81 S6        29.89F
HILLSDALE      CLOUDY    47  45  95 S6        29.86F
HOWELL         CLOUDY    46  44  93 S8        29.85S

CITY           SKY/WX    TMP DP  RH WIND       PRES   REMARKS
JACKSON        CLOUDY    47  43  86 SW8       29.86F
LAMBERTVILLE   CLOUDY    50  41  71 SW6       29.91F
LANSING        CLOUDY    48  43  82 SW10      29.84F
LAPEER         CLOUDY    46  43  90 SW8       29.85F
MASON          CLOUDY    47  44  90 SW3       29.84F
MONROE         DRIZZLE   48  43  81 SW6       29.89F
MT. CLEMENS    CLOUDY    47  43  87 SW10      29.86F
PONTIAC        CLOUDY    45  42  89 S8        29.85F
PORT HOPE        N/A     46  43  89 SW8       29.80S
PORT HURON     CLOUDY    45  43  93 S6        29.87F
TRI CITIES     CLOUDY    49  44  83 S10       29.82F
TROY           LGT RAIN  47  43  85 S8        29.88F
SAGINAW HB     CLOUDY    48  46  93 S7        29.81F
$$
MIZ043>046-050>051-056>058-064>065-071>073-077>080-201100-
SOUTHWEST LOWER MICHIGAN

CITY           SKY/WX    TMP DP  RH WIND       PRES   REMARKS
BATTLE CREEK   CLOUDY    48  43  82 S10       29.85F
BENTON HARBOR  CLOUDY    49  44  83 S8        29.83F
BIG RAPIDS     PTCLDY    48  48 100 SE3       29.77S
COLDWATER      CLOUDY    48  44  86 SW7       29.86F
FREMONT        FAIR      48  47  95 S3        29.78S
HOLLAND        MOCLDY    53  48  83 SW8       29.81F
GRAND RAPIDS   PTCLDY    49  45  86 S8        29.81F
IONIA          PTSUNNY   48  45  89 SW7       29.81F
KALAMAZOO      CLOUDY    48  44  86 S10       29.85S
LUDINGTON      CLEAR     49  47  91 SW3       29.77R
MARSHALL       CLOUDY    47  43  85 S6        29.85F
MOUNT PLEASANT MOCLDY    48  45  88 S5        29.78F
MUSKEGON       PTCLDY    53  47  79 SW8       29.79F
SOUTH HAVEN    MOCLDY    50  46  84 SW7       29.82S
$$
MIZ016>042-201100-
NORTHERN LOWER MICHIGAN

CITY           SKY/WX    TMP DP  RH WIND       PRES   REMARKS
ALPENA         LGT RAIN  46  43  89 SW5       29.76F
BEAVER ISLAND  CLOUDY    52  49  89 W5        29.73S
BELLAIRE       CLOUDY    49  46  89 CALM      29.75S
CADILLAC       CLOUDY    47  47 100 SW7       29.76S
CHARLEVOIX     CLOUDY    50  48  92 S3        29.76S
FRANKFORT      CLOUDY    53  46  79 CALM      29.74S
GAYLORD        CLOUDY    47  44  90 S6        29.74F
GRAYLING       CLOUDY    49  48  97 CALM      29.75F
HARBOR SPRINGS CLOUDY    51  46  86 SW3       29.73F
HOUGHTON LAKE  CLOUDY    47  45  93 S7        29.77F
MANISTEE       MOCLDY    45  41  87 CALM      29.76S
OSCODA         LGT RAIN  46  45  97 SW9       29.78S
PELLSTON       CLOUDY    51  46  83 SW5       29.74R
TRAVERSE CITY  CLOUDY    51  46  83 SW3       29.73S
$$
MIZ007>008-015-201100-
EASTERN UPPER MICHIGAN

CITY           SKY/WX    TMP DP  RH WIND       PRES   REMARKS
KINROSS        CLOUDY    46  45  93 S6        29.72R
MACKINAC ISLAN CLOUDY    50  48  93 SW7       29.72S
NEWBERRY       CLOUDY    46  45  95 W7        29.71S
S. S. MARIE    CLOUDY    45  44  97 CALM      29.71S FOG
$$
MIZ004>006-011>014-085-201100-
CENTRAL UPPER MICHIGAN

CITY           SKY/WX    TMP DP  RH WIND       PRES   REMARKS
MANISTIQUE     CLOUDY    47  45  93 NW7       29.73R
ESCANABA       CLOUDY    46  43  87 NW3       29.75R
MENOMINEE      MOCLDY    45  41  87 NW5       29.75R
SAWYER-GWINN   CLOUDY    45  41  87 N9        29.77R
$$
MIZ001>003-009>011-084-201100-
WESTERN UPPER MICHIGAN

CITY           SKY/WX    TMP DP  RH WIND       PRES   REMARKS
IRON MOUNTAIN  CLOUDY    43  42  97 CALM      29.76R
HOUGHTON       CLOUDY    45  41  86 NW8       29.78R
COPPER HARBOR    N/A     46  42  86 N14       29.77R
IRONWOOD       CLOUDY    46  43  87 NW5       29.81R
$$

ABBREVIATIONS USED IN REMARKS
   TC - TEMPERATURE IN CELSIUS
  WCI - WIND CHILL INDEX
   HX - HEAT INDEX
  VSB - VISIBILITY



USA.gov is the U.S. government's official web portal to all federal, state and local government web resources and services.